Вернуться в каталог

METEOR M2-4

АктивенПогодаSSO
NORAD 59051·PAYLOAD·🇷🇺 Russia

Запущен Feb 29, 2024 с Vostochny Cosmodrome

Loading…

Ближайшие Пролёты (ближайшие 24 часа)

TLE

СвежийSource: Space-Track

Эпоха: Sep 14, 2026, 14:06 UTC

1 59051U 24039A   26257.58782083 -.00000003  00000-0  18510-4 0  9994
2 59051  98.7115 215.8015 0005919 272.9142  87.1359 14.22437376131979

Отслеживайте METEOR M2-4 в реальном времени с AllMySat

Download on the App Store